[[{"header":{"parameterUnit":"m.s-1","parameterCategory":1,"la1":30.2991,"la2":30.254,"lo1":-89.0895,"lo2":-89.0444,"dy":0.0017,"dx":0.0017,"nx":28,"ny":28,"refTime":"2024-05-09T03:00:00:Z","depth":0,"parameterNumber":2,"parameterNumberName":"U-component_of_WINDS"},"data":[0,0,0,0,0,0,0,0,0,0,0,0,0,0,0,0,0,0,0,0,0,0,0,0,0,0,0,0,0,0,0,0,0,0,0,0,0,0,0,0,0,0,0,0,0,0,0,0,0,0,0,0,0,0,0,0,0,0,-1.4283,-1.4283,0,-1.4288,-1.4288,-1.4288,-1.4286,-1.4285,-1.4285,-1.4285,-1.429,-1.429,-1.4291,0,0,0,0,0,0,0,0,0,0,0,0,0,-1.4271,-1.4271,-1.4283,-1.4283,-1.4283,-1.4288,-1.4288,-1.4288,-1.4286,-1.4285,-1.4285,-1.4285,-1.429,-1.429,-1.4291,0,0,0,0,0,0,0,0,0,0,0,0,0,-1.4276,-1.4271,-1.4283,-1.4282,-1.4282,-1.4288,-1.4288,-1.4288,-1.4286,-1.4285,-1.4285,-1.4285,-1.429,-1.429,-1.4291,-1.4297,0,0,-1.4292,-1.4292,0,0,0,0,0,0,0,0,-1.4276,-1.4276,-1.4282,-1.4282,-1.4282,-1.4286,-1.4286,-1.4291,-1.4286,-1.4284,-1.4285,-1.4285,-1.4289,-1.4289,-1.4291,-1.4297,-1.4297,-1.4292,-1.4292,-1.4292,-1.4292,0,0,0,0,0,0,0,-1.4275,-1.4276,-1.4285,-1.4282,-1.4282,-1.4282,-1.4282,-1.4287,-1.4288,-1.4284,-1.4284,-1.4285,-1.4289,-1.429,-1.4291,-1.4297,-1.4292,-1.4292,-1.4292,-1.4293,-1.431,-1.431,0,0,0,0,0,0,-1.4275,-1.4276,-1.4285,-1.4285,-1.4278,-1.4282,-1.4283,-1.4285,-1.4288,-1.4288,-1.4285,-1.4285,-1.429,-1.429,-1.4291,-1.4299,-1.4292,-1.4293,-1.4293,-1.431,-1.431,-1.431,0,0,0,0,0,0,-1.4275,-1.4276,-1.4284,-1.428,-1.4281,-1.4283,-1.4285,-1.4285,-1.4287,-1.4288,-1.4288,-1.4286,-1.429,-1.429,-1.4296,-1.4299,-1.4293,-1.4293,-1.4309,-1.431,-1.431,-1.4314,0,0,0,0,0,0,-1.4274,-1.4276,-1.4278,-1.428,-1.4282,-1.4289,-1.4285,-1.4285,-1.4287,-1.4287,-1.4289,-1.429,-1.429,-1.4295,-1.4296,-1.4299,-1.4293,-1.4309,-1.4309,-1.431,-1.4314,-1.4314,-1.4315,0,0,0,0,0,-1.4274,-1.4279,-1.4278,-1.4279,-1.4285,-1.4289,-1.429,-1.429,-1.4288,-1.429,-1.4291,-1.4289,-1.4298,-1.4296,-1.4297,-1.43,-1.4309,-1.4309,-1.431,-1.4313,-1.4314,-1.4315,0,0,0,0,0,0,-1.4276,-1.4279,-1.4278,-1.4284,-1.4286,-1.4289,-1.4292,-1.4291,-1.4294,-1.4293,-1.4293,-1.4294,-1.4299,-1.43,-1.4297,-1.4306,-1.4303,-1.4304,-1.4305,-1.4306,-1.4307,-1.4307,-1.4294,0,0,0,0,0,-1.4277,-1.4281,-1.4283,-1.4288,-1.4289,-1.429,-1.4292,-1.4292,-1.4294,-1.4295,-1.4297,-1.4299,-1.4302,-1.4305,-1.4308,-1.4314,-1.4314,-1.4317,-1.4318,-1.4318,-1.4319,-1.4323,-1.4324,-1.4312,-1.4312,-1.4312,0,0,-1.428,-1.4282,-1.4284,-1.4288,-1.429,-1.4294,-1.4291,-1.4295,-1.4298,-1.4296,-1.4301,-1.4302,-1.4305,-1.4311,-1.4313,-1.4312,-1.4322,-1.4319,-1.4319,-1.432,-1.4323,-1.4324,-1.4325,-1.4312,-1.4312,-1.4312,0,0,-1.4286,-1.4288,-1.4292,-1.4294,-1.4297,-1.4298,-1.4299,-1.4302,-1.4302,-1.4308,-1.4307,-1.431,-1.4316,-1.4318,-1.4319,-1.4327,-1.4326,-1.4329,-1.4333,-1.4336,-1.4337,-1.4338,-1.4341,-1.4342,-1.4329,-1.4329,-1.4329,0,-1.4288,-1.4294,-1.4294,-1.4298,-1.4301,-1.43,-1.4304,-1.4306,-1.431,-1.4312,-1.431,-1.4318,-1.4319,-1.4326,-1.4328,-1.4329,-1.4331,-1.4328,-1.4337,-1.4338,-1.4339,-1.4341,-1.4342,-1.4329,-1.4329,-1.4329,-1.4329,0,-1.4297,-1.4301,-1.4304,-1.4308,-1.4311,-1.4315,-1.4316,-1.4319,-1.4319,-1.432,-1.4325,-1.4328,-1.4331,-1.4333,-1.4333,-1.434,-1.4339,-1.4337,-1.4334,-1.434,-1.4343,-1.4344,-1.433,-1.433,-1.433,-1.433,0,0,-1.4304,-1.4309,-1.431,-1.4312,-1.4316,-1.4319,-1.4323,-1.4327,-1.4329,-1.4332,-1.4336,-1.4342,-1.434,-1.4342,-1.4343,-1.4346,-1.4352,-1.4344,-1.4344,-1.4345,-1.436,-1.4361,-1.4362,-1.4352,-1.4352,-1.4352,-1.436,0,-1.431,-1.4318,-1.4319,-1.4326,-1.433,-1.433,-1.4334,-1.4336,-1.4338,-1.4341,-1.4343,-1.4347,-1.4345,-1.4346,-1.4349,-1.4351,-1.4355,-1.435,-1.4355,-1.4355,-1.4354,-1.4364,-1.4365,-1.4372,-1.4361,-1.4361,-1.4361,0,-1.4318,-1.4322,-1.433,-1.4333,-1.4335,-1.4339,-1.4343,-1.4346,-1.4349,-1.435,-1.4353,-1.4353,-1.4358,-1.4355,-1.4362,-1.4358,-1.436,-1.4362,-1.4362,-1.4362,-1.4359,-1.4364,-1.4374,-1.4376,-1.4363,-1.4363,-1.4363,0,-1.4323,-1.433,-1.4335,-1.4337,-1.4341,-1.4344,-1.4346,-1.4349,-1.4352,-1.4355,-1.4357,-1.4361,-1.4363,-1.4366,-1.4368,-1.4365,-1.4375,-1.4371,-1.4375,-1.4375,-1.4377,-1.4377,-1.4388,-1.4379,-1.4379,-1.4379,-1.4379,0,-1.433,-1.4335,-1.4337,-1.4341,-1.4346,-1.4347,-1.4353,-1.4355,-1.4357,-1.4361,-1.4361,-1.4365,-1.4366,-1.437,-1.4371,-1.4377,-1.4378,-1.4379,-1.4379,-1.4379,-1.4378,-1.438,-1.4379,-1.4379,-1.4379,-1.4379,-1.4379,0,-1.4336,-1.4338,-1.4344,-1.4348,-1.4349,-1.4353,-1.4356,-1.4359,-1.4361,-1.4366,-1.4367,-1.437,-1.4374,-1.4376,-1.4381,-1.4382,-1.4389,-1.4388,-1.4388,-1.4388,-1.4391,-1.4391,-1.4403,-1.4405,-1.4395,-1.4395,-1.4395,0,-1.434,-1.4344,-1.4348,-1.4351,-1.4353,-1.4357,-1.436,-1.4362,-1.4365,-1.4369,-1.4372,-1.4377,-1.438,-1.4388,-1.439,-1.4395,-1.4394,-1.4399,-1.4395,-1.4395,-1.4395,-1.4394,-1.4395,-1.4399,-1.4399,-1.4399,-1.4399,0,-1.4347,-1.4348,-1.4352,-1.4357,-1.436,-1.4364,-1.4368,-1.437,-1.4372,-1.4375,-1.438,-1.4383,-1.4389,-1.4394,-1.4399,-1.4401,-1.44,-1.44,-1.4402,-1.4401,-1.4401,-1.4401,-1.4389,-1.44,-1.44,-1.44,-1.44,-1.44,-1.4352,-1.4356,-1.436,-1.4365,-1.4368,-1.4371,-1.4374,-1.4377,-1.4381,-1.4386,-1.4387,-1.4392,-1.4396,-1.4402,-1.4405,-1.4409,-1.4408,-1.4409,-1.441,-1.441,-1.441,-1.44,-1.441,-1.441,-1.441,-1.441,-1.441,0,-1.436,-1.4363,-1.4367,-1.4372,-1.4376,-1.4376,-1.438,-1.4383,-1.4388,-1.4391,-1.4395,-1.4401,-1.4406,-1.4409,-1.4414,-1.4417,-1.4417,-1.4418,-1.4418,-1.4418,-1.4411,-1.441,-1.4418,-1.4418,-1.4418,-1.4418,-1.4418,-1.4418,-1.4365,-1.437,-1.4372,-1.438,-1.4382,-1.4388,-1.439,-1.4393,-1.4396,-1.4403,-1.4407,-1.4409,-1.4412,-1.4418,-1.4422,-1.4423,-1.4425,-1.4426,-1.4427,-1.442,-1.4419,-1.4418,-1.4417,-1.4426,-1.4426,-1.4433,-1.4434,-1.4434]},{"header":{"parameterUnit":"m.s-1","parameterCategory":1,"la1":30.2991,"la2":30.254,"lo1":-89.0895,"lo2":-89.0444,"dy":0.0017,"dx":0.0017,"nx":28,"ny":28,"refTime":"2024-05-09T03:00:00:Z","depth":0,"parameterNumber":3,"parameterNumberName":"V-component_of_WINDS"},"data":[0,0,0,0,0,0,0,0,0,0,0,0,0,0,0,0,0,0,0,0,0,0,0,0,0,0,0,0,0,0,0,0,0,0,0,0,0,0,0,0,0,0,0,0,0,0,0,0,0,0,0,0,0,0,0,0,0,0,6.0654,6.0654,0,6.0672,6.0672,6.0672,6.0633,6.0631,6.063,6.0629,6.0644,6.0646,6.0647,0,0,0,0,0,0,0,0,0,0,0,0,0,6.0583,6.0584,6.0654,6.0654,6.0654,6.0672,6.0672,6.0672,6.0633,6.0631,6.063,6.0628,6.0644,6.0646,6.0647,0,0,0,0,0,0,0,0,0,0,0,0,0,6.0608,6.0585,6.0654,6.0637,6.0635,6.0672,6.0672,6.0672,6.0633,6.0631,6.0629,6.0628,6.0643,6.0645,6.0648,6.07,0,0,6.0655,6.0656,0,0,0,0,0,0,0,0,6.0607,6.0611,6.0639,6.0638,6.0636,6.0648,6.0652,6.0682,6.0634,6.0634,6.0629,6.0627,6.0647,6.0649,6.0656,6.0701,6.0702,6.0655,6.0657,6.0658,6.0658,0,0,0,0,0,0,0,6.0605,6.061,6.0661,6.0639,6.0638,6.0627,6.0629,6.0658,6.0651,6.0634,6.0631,6.0634,6.0646,6.0654,6.0656,6.0702,6.0655,6.0657,6.0659,6.066,6.0791,6.0793,0,0,0,0,0,0,6.0606,6.0609,6.066,6.0661,6.0617,6.063,6.0632,6.0646,6.065,6.0649,6.0635,6.0632,6.0651,6.0654,6.0657,6.0719,6.0658,6.066,6.0661,6.0789,6.0792,6.0794,0,0,0,0,0,0,6.0604,6.0611,6.0659,6.0634,6.064,6.0633,6.065,6.0648,6.0656,6.0652,6.065,6.0645,6.065,6.0653,6.069,6.0719,6.0661,6.0663,6.0787,6.079,6.0793,6.0843,0,0,0,0,0,0,6.0603,6.0611,6.0631,6.0635,6.0641,6.0693,6.0652,6.0649,6.066,6.0656,6.066,6.0659,6.0648,6.0687,6.0693,6.0721,6.0665,6.0784,6.0788,6.0792,6.0839,6.0847,6.0855,0,0,0,0,0,6.06,6.0643,6.0632,6.0638,6.0667,6.0695,6.0698,6.0686,6.0663,6.0683,6.068,6.0659,6.0715,6.0691,6.0697,6.0726,6.0782,6.0787,6.0792,6.0835,6.0846,6.0855,0,0,0,0,0,0,6.0641,6.0643,6.0631,6.0677,6.0686,6.0688,6.0713,6.0697,6.0712,6.0707,6.069,6.0692,6.0732,6.0733,6.0706,6.0778,6.0745,6.0751,6.0775,6.0786,6.0793,6.0792,6.0667,0,0,0,0,0,6.0655,6.0679,6.068,6.072,6.0726,6.0719,6.0731,6.0721,6.0729,6.0732,6.0732,6.0741,6.076,6.0773,6.0791,6.0839,6.0839,6.0863,6.0871,6.0877,6.0882,6.0908,6.0919,6.0809,6.0809,6.0809,0,0,6.0685,6.0689,6.0705,6.0728,6.0734,6.0759,6.0722,6.0749,6.0767,6.0736,6.0771,6.0772,6.078,6.0823,6.0842,6.0825,6.0913,6.0883,6.0889,6.089,6.0914,6.0925,6.0934,6.0813,6.0812,6.0812,0,0,6.0751,6.0757,6.0792,6.0799,6.081,6.0805,6.0814,6.0819,6.0819,6.0854,6.0832,6.0852,6.0886,6.0893,6.0901,6.0972,6.0953,6.0978,6.102,6.1046,6.1054,6.1062,6.1087,6.1096,6.0984,6.0984,6.0984,0,6.0786,6.0823,6.0811,6.0841,6.0851,6.0827,6.0861,6.0869,6.0884,6.0892,6.0873,6.0916,6.0919,6.0964,6.0982,6.0989,6.0998,6.0977,6.1054,6.1062,6.1068,6.1092,6.1102,6.0987,6.0987,6.0986,6.0986,0,6.0865,6.0892,6.0918,6.0935,6.0949,6.0981,6.0974,6.0989,6.0979,6.0976,6.1013,6.1017,6.1035,6.1045,6.1034,6.1088,6.1078,6.1057,6.1023,6.1082,6.1104,6.1113,6.0991,6.099,6.0989,6.0988,0,0,6.0955,6.0968,6.0978,6.0986,6.0996,6.1016,6.1047,6.1066,6.108,6.1092,6.1117,6.1147,6.1128,6.1137,6.1127,6.115,6.1207,6.1127,6.1126,6.1141,6.1266,6.1281,6.1292,6.1195,6.1196,6.1198,6.1266,0,6.1021,6.1075,6.1067,6.1119,6.1143,6.1121,6.1148,6.1157,6.1156,6.1176,6.1174,6.1196,6.117,6.1175,6.1197,6.1195,6.1231,6.119,6.1217,6.1218,6.1214,6.1304,6.1319,6.1383,6.1274,6.1276,6.1277,0,6.1104,6.1121,6.1176,6.1185,6.1194,6.1219,6.1237,6.1256,6.1266,6.1264,6.1275,6.1261,6.1292,6.1259,6.13,6.1272,6.1283,6.1284,6.1286,6.1287,6.125,6.1306,6.1403,6.1412,6.129,6.1289,6.1288,0,6.1164,6.12,6.1238,6.1246,6.1257,6.1275,6.128,6.1288,6.1301,6.1316,6.1324,6.1342,6.1352,6.1366,6.1358,6.1335,6.1401,6.1367,6.1399,6.1399,6.1412,6.1411,6.1511,6.1421,6.1421,6.1421,6.142,0,6.1237,6.1272,6.1266,6.1289,6.1327,6.1317,6.1355,6.1357,6.1365,6.1388,6.137,6.1391,6.1379,6.14,6.1393,6.1428,6.1433,6.1431,6.1429,6.1432,6.1432,6.1438,6.1433,6.1423,6.1422,6.1422,6.1422,0,6.1309,6.1307,6.1347,6.1355,6.1358,6.1386,6.1392,6.1413,6.1412,6.1441,6.1447,6.1444,6.1468,6.1461,6.1486,6.1482,6.1526,6.1518,6.1523,6.1521,6.1553,6.155,6.1659,6.1672,6.1574,6.1575,6.1576,0,6.1356,6.1382,6.1394,6.1409,6.1416,6.144,6.1453,6.1445,6.1459,6.1474,6.1494,6.1516,6.1533,6.1572,6.1571,6.159,6.1582,6.1619,6.1585,6.1588,6.1582,6.158,6.1583,6.1626,6.1627,6.1628,6.1628,0,6.1438,6.1436,6.1457,6.1479,6.1496,6.1512,6.1526,6.1539,6.1531,6.1548,6.1573,6.1587,6.1613,6.1635,6.1653,6.1657,6.1642,6.164,6.1648,6.1651,6.1653,6.1652,6.1541,6.1637,6.1636,6.1635,6.1635,6.1635,6.1499,6.1521,6.1534,6.1558,6.1568,6.1582,6.1603,6.1606,6.1627,6.1648,6.1642,6.167,6.168,6.1703,6.171,6.1731,6.1717,6.1729,6.1732,6.1734,6.1738,6.1651,6.1734,6.1734,6.1734,6.1733,6.1733,0,6.158,6.1587,6.161,6.1631,6.1651,6.1637,6.1652,6.1668,6.1694,6.1706,6.1724,6.1752,6.1774,6.1776,6.1797,6.1813,6.1807,6.1819,6.1817,6.1818,6.175,6.1741,6.1824,6.1824,6.1824,6.1824,6.1824,6.1824,6.1624,6.1662,6.1662,6.1706,6.1712,6.1741,6.1751,6.1764,6.1773,6.1807,6.1825,6.1827,6.1835,6.1856,6.1876,6.1876,6.1883,6.1898,6.1896,6.1832,6.1823,6.1814,6.1805,6.19,6.1901,6.1961,6.1962,6.1962]}]]